Location: *
(48.7358°N, 0.3111°E)
Time: 10:00:35
(UTC+00:00)

PSLV R/B - Pass Details

Date: 22 October 2019
Orbit: 593 x 630 km, 97.9° (Epoch: 14 November)

Event Time Altitude Azimuth Distance (km) Brightness Sun altitude
Rises 03:50:37 0° 14° (NNE) 2,867 7.3 -26.6°
Reaches altitude 10° 03:52:49 10° 16° (NNE) 1,954 6.4 -26.3°
Enters shadow 03:56:28 63° 38° (NE) 670 3.8 -25.7°
